Weather in Portovoye

Russia / Republic of Crimea     45°50′53″N   33°29′10″E
temp.,
°C
wind,
m/s
gust,
m/s
humid.,
%
clouds,
%
prec.,
mm/h
press.,
hPa
HPBL,
m
1 march, mon
mon100:00+3nw4778100 0.1 1024424
03:00+2wnw3677100 0.1 1024256
06:00+1wnw228099 0.0 102437
09:00+3nne227599 0.0 1025216
12:00+5nne336187 0.0 1026930
15:00+6n435672 0.0 10261098
18:00+5n346366 0.0 1027715
21:00+3n237773 0.0 102939
2 march, tue
tue200:00+3nne367586 0.1 1030314
03:00+2nne358089 0.1 1031177
06:00+1n127655 0.0 103128
09:00+3wnw126664 0.0 1031241
12:00+5wnw555784 0.0 10301137
15:00+6w675968 0.0 1029967
18:00+4w696921 0.0 1026673
21:00+3wsw6137644 0.0 1025464
3 march, wed
wed300:00+4wsw714810 0.0 1023437
03:00+5w7138432 0.0 1021386
06:00+3nnw612873 0.0 1021381
09:00+5nnw7107752 0.1 1024924
12:00+6n685944 0.0 10251126
15:00+8n574722 0.0 10261153
18:00+7n35510 0.0 1026249
21:00+4ne11630 0.0 102922
4 march, thu
thu400:00+3sse22670 0.0 102822
03:00+2s33690 0.0 102831
06:00+1ssw34710 0.0 102648
09:00+4ssw46680 0.0 1026209
12:00+9wsw56490 0.0 10241248
15:00+9sw68480 0.0 10221264
18:00+6sw69600 0.0 1020898
21:00+4sw512770 0.0 1020546
5 march, fri
fri500:00+4ssw713790 0.0 1019540
03:00+4ssw714810 0.0 1017493
06:00+4ssw714850 0.0 1016461
09:00+6ssw813783 0.0 1016543
12:00+10ssw811650 0.0 1016693
15:00+11ssw810620 0.0 1014787
18:00+9ssw812740 0.0 1013556
21:00+7ssw916847 0.0 1013465